Tracking 31011 objects as of 11-Jul-2025
HD Live streaming from Space Station
objects crossing your sky now

OBJECT N

Track OBJECT N now!
10-day predictions


NORAD ID: 54694
Int'l Code: 2022-167N
Perigee: 487.7 km
Apogee: 495.4 km
Inclination: 97.7 °
Period: 94.3 minutes
Semi major axis: 6862 km
RCS: Unknown
Launch date: December 9, 2022
Source: People's Republic of China (PRC)
Launch site: Yellow Sea Launch Area, China (YSLA)
Your satellite tracking list
Your tracking list is empty




NASA's NSSDC Master Catalog

Two Line Element Set (TLE):
1 54694U 22167N   25192.58661647  .00006689  00000-0  25421-3 0  9994
2 54694  97.6505 345.6773 0005619 256.9406 103.1205 15.27136611143339
Source of the keplerian elements: AFSPC